sat.trackr.live / text

‹ back to catalog

STARLINK-34955

NORAD 65192 · 2025-175U

PAYLOAD ACTIVE UNKNOWN

§ Identity

Operator
Country
US
Launch date
2025-08-14
Launch site
AFWTR
Launch vehicle
Mass (kg)
RCS (m²)

Purposes: comms

External: N2YO · Heavens-Above · Gunter

§ Orbital elements

Epoch: 2026-09-20T21:28:32.373696Z

Period
93.91 min
Inclination
97.2849°
Eccentricity
0.0001740
Mean motion
15.33445165 rev/d
Perigee alt
464.4 km
Apogee alt
466.7 km
Semi-major
6,843.7 km
B*
4.8426e-4
RAAN
132.8784°
Arg perigee
91.1480°
Mean anomaly
268.9963°
Rev number
6,216

§ Raw data

STARLINK-349551 65192U 25175U   26263.89481914  .00015591  00000+0  48426-3 0  99932 65192  97.2849 132.8784 0001740  91.1480 268.9963 15.33445165 62167

JSON: /api/v1/satellites/65192 · /tle

For live sub-satellite position, see the globe view (requires WebGL).

§ Visibility from observer

Set your observer location to see the next 7 days of passes ≥ 10°. The values pass through the URL so the page stays shareable.

No JS? Fill the form by hand. The geolocation button needs JavaScript.